SCP
0 0 0 0 0 0 0 0 0 0 0 0 0 0 0 0 0 0 0 0 0 0 0 0 0 0 0 0 0 0 0 0 0 0 0 0 0 0 0 0 0 0 0 0
0 0 0 0 0 0 0 0 0 0 0 0 0 0 0 0 0 0 0 0 0 0 0 0 0 0 0 0 0 0 0 0 0 0 0 0 0 0 0 0 0 0 0 0
0 0 0 0 0 0 0 0 0 0 -0 0 0 0 0 0 0 0 0 0 0 0 0 0 0 0 0 0 0 0 0 0 0 0 0 0 0 0 0 0 0 0 0 0
0 0 0 0 0 0 0 0 0 0 0 0 0 0 0 0 0 0 0 0 0 0 0 0 0 0 0 0 0 0 0 0 0 0 0 0 0 0 0 0 0 0 0 0
0 0 0 0 0 0 0 0 0 0 0 0 0 0 0 0 0 0 0 0 0 0 0 0 0 0 0 0 0 0 0 0 0 0 0 0 0 0 0 0 0 0 0 0
0 0 0 -0 0 -0 0 0 0 0 0 0 0 0 0 0 0 0 0 0 0 0 0 0 0 0 0 0 0 0 0 0 0 0 0 0 0 0 0 0 0 0 0 0
0 0 0 0 0 0 0 0 -0 0 0 0 0 0 0 0 0 0 0 0 0 0 0 0 0 0 0 0 0 0 0 0 0 0 0 0 0 0 0 0 0 0 0 0
0 0 0 -0 0 0 0 0 0 -0 0 0 0 0 0 0 0 0 0 0 0 0 0 0 0 0 0 0 0 0 0 0 0 0 0 0 0 0 0 0 0 0 0 0
0 0 0 0 0 0 0 0 0 0 0 0 0 0 0 0 0 0 0 0 0 0 0 0 0 0 0 0 0 0 0 0 0 0 0 0 0 0 0 0 0 0 0 0
0 0 0 0 0 0 0 0 0 0 0 0 0 0 0 0 0 0 0 0 0 0 0 0 0 0 0 0 0 0 0 0 0 0 0 0 0 0 0 0 0 0 0 0
0 0 0 0 0 0 0 0 0 0 0 0 0 0 0 0 0 0 0 0 0 0 0 0 0 0 0 0 0 0 0 0 0 0 0 0 0 0 0 0 0 0 0 0
0 0 0 0 0 0 0 0 0 0 0 0 0 0 0 0 0 0 0 0 0 0 0 0 0 0 0 0 0 0 0 0 0 0 0 0 0 0 0 0 0 0 0 0
0 0 0 0 0 0 0 0 0 0 0 0 0 0 0 0 0 0 0 0 0 0 0 0 0 0 0 0 0 0 0 0 0 0 0 0 0 0 0 0 0 0 0 0
0 0 0 0 0 0 0 0 0 0 0 0 0 0 0 0 0 0 0 0 0 0 0 0 0 0 0 0 0 0 0 0 0 0 0 0 0 0 0 0 0 0 0 0
0 0 0 0 0 0 0 0 0 0 0 0 0 0 0 0 0 0 0 0 0 0 0 0 0 0 0 0 0 0 0 0 0 0 0 0 0 0 0 0 0 0 0 0
0 0 0 0 0 0 0 0 0 0 0 0 0 0 0 0 0 0 0 0 0 0 0 0 0 0 0 0 0 0 0 0 0 0 0 0 0 0 0 0 0 0 0 0
0 0 0 0 0 0 0 0 0 0 0 0 0 0 0 0 0 0 0 0 0 0 0 0 0 0 0 0 0 0 0 0 0 0 0 0 0 0 0 0 0 0 0 0
0 0 0 0 0 0 0 0 0 0 0 0 0 0 0 0 0 0 0 0 0 0 0 0 0 0 0 0 0 0 0 0 0 0 0 0 0 0 0 0 0 0 0 0
0 0 0 0 0 0 0 0 0 0 0 0 0 0 0 0 0 0 0 0 0 0 0 0 0 0 0 0 0 0 0 0 0 0 0 0 0 0 0 0 0 0 0 0
0 0 0 0 0 0 0 0 0 0 0 0 0 0 0 0 0 0 0 0 0 0 0 0 0 0 0 0 0 0 0 0 0 0 0 0 0 0 0 0 0 0 0 0
0 0 0 0 0 0 0 0 0 0 0 0 0 0 0 0 0 0 0 0 0 0 0 0 0 0 0 0 0 0 0 0 0 0 0 0 0 0 0 0 0 0 0 0
0 0 0 0 0 0 0 0 0 0 0 0 0 0 0 0 0 0 0 0 0 0 0 0 0 0 0 0 0 0 0 0 0 0 0 0 0 0 0 0 0 0 0 0
0 0 0 0 0 0 0 0 0 0 0 0 0 0 0 0 0 0 0 0 0 0 0 0 0 0 0 0 0 0 0 0 0 0 0 0 0 0 0 0 0 0 0 0
0 0 0 0 0 0 0 0 0 0 0 0 0 0 0 0 0 0 0 0 0 0 0 0 0 0 0 0 0 0 0 0 0 0 0 0 0 0 0 0 0 0 0 0
0 0 0 0 0 0 0 0 0 0 0 0 0 0 0 0 0 0 0 0 0 0 0 0 0 0 0 0 0 0 0 0 0 0 0 0 0 0 0 0 0 0 0 0
0 0 0 0 0 0 0 0 0 0 0 0 0 0 0 0 0 0 0 0 0 0 0 0 0 0 0 0 0 0 0 0 0 0 0 0 0 0 0 0 0 0 0 0
0 0 0 0 0 0 0 0 0 0 0 0 0 0 0 0 0 0 0 0 0 0 0 0 0 0 0 0 0 0 0 0 0 0 0 0 0 0 0 0 0 0 0 0
Wind_Speed_500mb
29 17 7 4 18 37 44 54 19 60 54 56 28 18 42 46 35 32 32 24 24 21 18 16 12 10 10 12 14 17 21 26 31 38 45 52 58 62 64 65 63 60 61 60
27 23 38 37 27 27 50 54 49 63 55 36 31 52 53 57 40 45 44 37 29 25 22 19 15 17 21 24 27 31 31 30 32 34 35 37 39 42 46 51 54 54 55 58
14 11 14 23 64 46 34 35 44 45 72 19 26 24 49 63 56 61 58 50 37 27 29 22 20 27 33 36 39 40 40 38 37 35 34 32 32 33 33 34 34 34 39 44
8 7 14 19 7 46 57 55 43 51 59 53 60 67 62 73 78 73 74 64 44 37 30 28 30 36 41 40 39 40 39 38 36 33 31 29 28 26 25 25 28 34 40 45
5 10 20 31 44 13 21 55 54 60 69 74 60 34 66 89 79 81 70 57 50 39 34 36 35 36 35 33 32 32 31 30 28 26 25 25 25 23 22 21 24 27 30 32
3 10 19 61 9 30 13 39 57 53 66 61 33 26 53 57 77 71 58 53 52 46 41 36 33 32 32 31 29 27 24 23 23 23 23 22 21 19 19 18 18 16 15 18
33 12 20 12 18 27 25 23 8 66 95 67 36 74 66 50 58 69 59 60 53 45 39 35 32 30 27 24 20 18 16 14 13 12 11 11 12 14 13 14 12 13 14 14
21 19 36 10 15 41 29 27 20 29 65 58 89 77 61 56 52 61 65 60 51 42 35 30 26 22 20 16 13 10 6 3 1 1 3 5 7 10 12 11 10 11 12 12
21 17 1 7 9 29 34 24 17 28 24 34 63 71 73 68 67 67 60 54 46 40 36 32 28 26 22 20 17 13 9 5 4 5 6 8 9 10 12 13 13 14 14 13
2 4 15 22 20 21 39 42 31 24 31 32 42 59 66 67 69 64 55 48 44 41 38 35 33 28 23 21 19 15 10 7 5 4 4 5 6 8 9 10 12 13 13 13
13 10 25 6 37 47 42 35 20 16 17 20 30 44 59 66 63 55 51 47 43 38 36 38 35 30 27 23 19 14 9 6 5 5 7 8 8 7 8 9 10 10 11 11
2 22 18 26 46 59 51 45 28 15 5 12 33 47 58 60 55 52 49 47 45 45 42 40 36 32 28 24 22 18 12 10 9 8 7 7 9 9 9 9 8 9 10 11
18 61 58 57 52 37 40 37 19 9 7 20 32 40 52 58 51 49 49 48 47 45 41 38 34 31 28 25 22 17 14 12 12 12 12 12 13 14 13 11 10 10 11 12
23 43 13 23 37 55 38 24 12 7 16 27 37 42 48 52 52 47 47 44 42 41 39 35 31 29 27 23 20 17 13 10 11 12 13 15 16 16 16 15 14 13 12 12
30 22 26 36 33 32 23 11 4 13 22 29 37 41 42 48 50 46 43 39 38 37 37 33 29 27 24 19 18 15 13 11 11 11 12 12 13 13 14 15 16 16 16 15
47 17 28 28 33 30 24 15 16 16 18 24 30 35 37 40 44 43 40 37 32 36 35 31 28 29 25 22 19 16 15 10 10 10 11 12 12 12 12 13 12 12 13 13
39 28 41 33 36 33 29 23 19 18 20 24 26 30 31 32 36 36 34 31 30 33 32 29 29 28 26 22 18 14 14 12 8 9 8 9 9 9 8 9 11 14 16 19
19 19 21 23 25 22 19 17 16 17 24 27 29 31 31 30 33 35 33 29 28 29 30 28 29 26 22 18 15 12 10 7 6 7 9 13 15 18 20 22 24 26 28 30
18 19 18 18 18 16 16 18 21 20 24 23 23 29 31 32 32 31 29 25 25 26 28 26 23 17 11 9 6 4 5 8 11 15 18 22 25 28 30 33 34 36 38 39
16 19 20 21 21 20 22 23 23 24 29 30 32 34 33 33 31 28 23 21 24 23 19 14 10 6 5 6 8 12 16 20 23 27 29 32 34 36 38 40 41 43 45 47
21 22 22 25 24 24 26 28 27 29 29 26 27 28 26 25 22 20 16 14 14 10 8 8 10 14 18 22 26 29 30 32 34 35 37 38 40 42 43 45 46 48 49 50
22 21 22 22 22 26 28 28 28 28 27 27 25 24 21 17 14 10 10 11 12 14 16 20 24 27 31 33 34 36 37 39 41 43 45 47 49 50 51 52 54 55 56 57
21 20 19 19 22 24 23 22 23 23 22 20 19 17 14 14 12 11 13 17 20 22 24 27 30 35 38 39 41 42 44 46 47 49 51 53 54 56 58 58 59 60 61 61
18 18 19 19 20 17 20 23 22 22 21 20 19 18 16 16 17 17 21 23 24 25 28 31 34 38 41 44 46 48 49 51 53 54 56 57 59 61 63 65 67 66 67 67
18 18 17 16 20 23 22 21 19 17 17 19 18 18 19 20 21 22 24 27 30 33 34 37 41 44 47 50 52 54 56 57 58 60 61 62 63 65 66 66 68 68 69 70
15 17 18 19 21 21 22 22 23 23 22 20 21 22 23 26 29 32 34 37 40 42 45 47 49 51 53 55 58 60 62 63 64 64 67 69 70 72 72 72 73 73 74 75
17 17 18 20 21 22 22 23 23 23 26 27 26 28 31 33 36 40 44 46 49 51 53 54 56 58 60 62 64 65 66 68 68 70 71 73 73 74 75 76 78 79 80 80
Wind_Direction_500mb
244 237 228 312 223 209 215 232 248 248 253 253 248 257 269 269 256 214 200 197 199 200 204 199 205 222 234 245 249 250 251 251 251 252 253 254 256 258 260 260 260 262 265 267
260 262 256 247 237 248 222 226 234 245 260 253 250 241 245 251 245 235 218 218 222 228 224 215 226 253 264 267 265 264 264 264 261 259 259 260 261 260 261 261 261 260 259 259
264 240 313 246 236 236 250 246 229 242 245 270 249 227 231 243 234 236 234 229 231 237 232 237 256 269 272 272 270 268 267 267 265 262 262 262 263 264 264 263 263 261 259 259
252 47 252 247 319 227 229 238 227 244 255 254 246 248 251 249 255 244 245 239 232 227 225 247 264 270 273 275 272 268 265 263 262 260 259 257 256 258 259 260 259 257 258 259
212 203 285 296 278 204 212 252 232 234 244 249 246 254 246 240 243 252 249 241 225 219 235 250 257 261 266 269 268 268 265 259 255 252 252 252 253 256 262 265 267 271 272 272
132 194 224 257 151 237 196 256 244 225 242 242 197 230 248 232 235 243 243 222 211 219 229 233 237 246 253 258 262 262 259 255 250 245 242 243 247 252 258 258 269 283 289 298
235 253 264 264 194 164 182 242 228 223 230 228 206 222 238 234 231 232 220 206 211 215 211 209 217 226 233 239 244 245 240 236 236 241 251 263 272 281 285 289 288 293 296 293
224 236 253 199 188 192 233 287 303 308 240 217 222 232 233 234 227 210 197 197 201 203 201 202 201 202 200 193 189 174 157 164 158 20 323 315 316 314 315 311 303 305 310 317
197 216 10 91 36 323 341 306 311 302 305 248 234 234 233 224 206 193 192 191 193 196 192 187 182 176 171 157 147 134 124 105 64 26 0 345 333 318 305 301 301 306 311 316
5 342 348 21 12 321 335 331 325 300 288 269 246 236 215 196 188 185 183 184 183 185 179 175 170 167 163 155 147 143 143 131 110 78 26 5 356 344 335 328 318 307 300 292
273 6 331 246 10 345 333 323 323 333 294 275 251 209 196 179 176 176 175 174 173 172 165 160 158 158 155 152 148 136 136 121 101 59 36 25 25 20 13 6 359 339 332 319
310 354 318 293 308 337 334 330 350 356 341 193 203 179 175 168 171 170 167 163 163 161 160 156 154 153 151 147 138 133 126 98 75 67 73 89 85 73 54 39 18 359 358 345
287 307 304 295 314 308 324 327 0 12 171 159 157 160 163 158 156 157 158 157 160 156 152 149 149 146 142 138 123 111 96 88 89 92 93 81 73 68 65 66 47 26 11 360
299 329 344 322 323 320 329 350 15 99 143 147 142 151 154 152 148 152 152 154 153 151 147 143 139 140 131 123 114 104 105 115 123 120 107 94 82 72 65 61 55 43 32 23
319 336 316 309 316 331 338 1 78 108 114 127 137 143 147 145 145 147 147 146 147 146 142 140 141 135 125 122 116 125 126 132 122 104 89 74 65 56 47 41 36 34 27 23
326 320 325 350 355 357 2 33 61 76 109 122 131 137 139 144 144 143 140 138 146 141 135 137 137 127 125 124 128 136 137 119 92 73 56 48 45 42 37 34 33 28 20 7
347 344 341 348 358 2 12 27 56 79 107 123 127 131 137 138 136 134 132 134 137 134 131 130 124 122 123 129 137 140 119 101 81 65 49 38 25 14 4 351 337 330 326 321
339 333 332 333 344 1 24 45 64 82 97 108 120 122 125 128 125 123 123 120 120 122 123 122 121 119 125 131 130 119 101 81 50 15 357 345 337 330 326 322 319 317 314 310
3 8 11 15 24 31 49 67 77 83 94 99 108 110 111 112 112 113 109 109 109 110 107 108 108 107 119 130 107 58 8 342 329 321 318 315 312 311 309 308 307 306 305 303
33 41 37 43 48 59 69 75 85 96 100 107 108 108 110 106 102 99 98 98 84 78 77 82 76 53 19 350 323 320 317 313 309 307 306 304 303 303 302 302 302 302 301 300
38 48 53 59 60 66 73 77 82 86 87 94 101 103 106 109 111 108 103 95 83 76 51 23 355 341 333 325 317 312 308 306 306 305 304 303 302 301 301 300 299 298 297 297
45 52 56 60 63 67 70 73 76 79 83 84 83 83 80 78 75 65 49 30 8 354 344 335 329 320 314 308 309 309 309 308 307 306 306 304 304 303 302 301 300 299 298 297
43 50 57 61 60 61 64 67 67 67 66 66 65 61 55 48 34 10 349 341 335 330 325 316 310 306 308 310 309 309 307 305 304 302 301 300 299 297 296 295 294 292 291 292
43 47 50 49 51 55 61 56 51 47 42 38 34 28 21 10 359 347 336 329 323 319 315 312 311 309 309 307 306 304 303 301 300 299 298 296 296 295 294 294 293 293 291 290
40 41 41 39 42 43 42 40 37 32 25 20 14 7 360 351 344 338 332 327 324 321 320 318 317 315 314 313 311 310 307 306 305 303 302 299 297 295 293 292 291 290 288 288
35 36 35 33 31 32 29 26 23 20 19 15 2 358 349 342 336 332 328 325 323 320 318 316 313 312 310 308 306 305 303 302 301 299 298 297 296 295 294 294 292 291 290 289
27 29 27 22 21 20 17 15 10 1 354 349 349 341 335 329 326 323 321 319 317 315 314 312 311 309 307 306 304 302 300 299 298 297 296 294 293 292 292 291 289 288 287 286
Wind_Speed_850mb
29 17 7 4 18 37 44 54 19 60 54 56 28 18 42 46 35 32 32 24 24 21 18 16 12 10 10 12 14 17 21 26 31 38 45 52 58 62 64 65 63 60 61 60
27 23 38 37 27 27 50 54 49 63 55 36 31 52 53 57 40 45 44 37 29 25 22 19 15 17 21 24 27 31 31 30 32 34 35 37 39 42 46 51 54 54 55 58
14 11 14 23 64 46 34 35 44 45 72 19 26 24 49 63 56 61 58 50 37 27 29 22 20 27 33 36 39 40 40 38 37 35 34 32 32 33 33 34 34 34 39 44
8 7 14 19 7 46 57 55 43 51 59 53 60 67 62 73 78 73 74 64 44 37 30 28 30 36 41 40 39 40 39 38 36 33 31 29 28 26 25 25 28 34 40 45
5 10 20 31 44 13 21 55 54 60 69 74 60 34 66 89 79 81 70 57 50 39 34 36 35 36 35 33 32 32 31 30 28 26 25 25 25 23 22 21 24 27 30 32
3 10 19 61 9 30 13 39 57 53 66 61 33 26 53 57 77 71 58 53 52 46 41 36 33 32 32 31 29 27 24 23 23 23 23 22 21 19 19 18 18 16 15 18
33 12 20 12 18 27 25 23 8 66 95 67 36 74 66 50 58 69 59 60 53 45 39 35 32 30 27 24 20 18 16 14 13 12 11 11 12 14 13 14 12 13 14 14
21 19 36 10 15 41 29 27 20 29 65 58 89 77 61 56 52 61 65 60 51 42 35 30 26 22 20 16 13 10 6 3 1 1 3 5 7 10 12 11 10 11 12 12
21 17 1 7 9 29 34 24 17 28 24 34 63 71 73 68 67 67 60 54 46 40 36 32 28 26 22 20 17 13 9 5 4 5 6 8 9 10 12 13 13 14 14 13
2 4 15 22 20 21 39 42 31 24 31 32 42 59 66 67 69 64 55 48 44 41 38 35 33 28 23 21 19 15 10 7 5 4 4 5 6 8 9 10 12 13 13 13
13 10 25 6 37 47 42 35 20 16 17 20 30 44 59 66 63 55 51 47 43 38 36 38 35 30 27 23 19 14 9 6 5 5 7 8 8 7 8 9 10 10 11 11
2 22 18 26 46 59 51 45 28 15 5 12 33 47 58 60 55 52 49 47 45 45 42 40 36 32 28 24 22 18 12 10 9 8 7 7 9 9 9 9 8 9 10 11
18 61 58 57 52 37 40 37 19 9 7 20 32 40 52 58 51 49 49 48 47 45 41 38 34 31 28 25 22 17 14 12 12 12 12 12 13 14 13 11 10 10 11 12
23 43 13 23 37 55 38 24 12 7 16 27 37 42 48 52 52 47 47 44 42 41 39 35 31 29 27 23 20 17 13 10 11 12 13 15 16 16 16 15 14 13 12 12
30 22 26 36 33 32 23 11 4 13 22 29 37 41 42 48 50 46 43 39 38 37 37 33 29 27 24 19 18 15 13 11 11 11 12 12 13 13 14 15 16 16 16 15
47 17 28 28 33 30 24 15 16 16 18 24 30 35 37 40 44 43 40 37 32 36 35 31 28 29 25 22 19 16 15 10 10 10 11 12 12 12 12 13 12 12 13 13
39 28 41 33 36 33 29 23 19 18 20 24 26 30 31 32 36 36 34 31 30 33 32 29 29 28 26 22 18 14 14 12 8 9 8 9 9 9 8 9 11 14 16 19
19 19 21 23 25 22 19 17 16 17 24 27 29 31 31 30 33 35 33 29 28 29 30 28 29 26 22 18 15 12 10 7 6 7 9 13 15 18 20 22 24 26 28 30
18 19 18 18 18 16 16 18 21 20 24 23 23 29 31 32 32 31 29 25 25 26 28 26 23 17 11 9 6 4 5 8 11 15 18 22 25 28 30 33 34 36 38 39
16 19 20 21 21 20 22 23 23 24 29 30 32 34 33 33 31 28 23 21 24 23 19 14 10 6 5 6 8 12 16 20 23 27 29 32 34 36 38 40 41 43 45 47
21 22 22 25 24 24 26 28 27 29 29 26 27 28 26 25 22 20 16 14 14 10 8 8 10 14 18 22 26 29 30 32 34 35 37 38 40 42 43 45 46 48 49 50
22 21 22 22 22 26 28 28 28 28 27 27 25 24 21 17 14 10 10 11 12 14 16 20 24 27 31 33 34 36 37 39 41 43 45 47 49 50 51 52 54 55 56 57
21 20 19 19 22 24 23 22 23 23 22 20 19 17 14 14 12 11 13 17 20 22 24 27 30 35 38 39 41 42 44 46 47 49 51 53 54 56 58 58 59 60 61 61
18 18 19 19 20 17 20 23 22 22 21 20 19 18 16 16 17 17 21 23 24 25 28 31 34 38 41 44 46 48 49 51 53 54 56 57 59 61 63 65 67 66 67 67
18 18 17 16 20 23 22 21 19 17 17 19 18 18 19 20 21 22 24 27 30 33 34 37 41 44 47 50 52 54 56 57 58 60 61 62 63 65 66 66 68 68 69 70
15 17 18 19 21 21 22 22 23 23 22 20 21 22 23 26 29 32 34 37 40 42 45 47 49 51 53 55 58 60 62 63 64 64 67 69 70 72 72 72 73 73 74 75
17 17 18 20 21 22 22 23 23 23 26 27 26 28 31 33 36 40 44 46 49 51 53 54 56 58 60 62 64 65 66 68 68 70 71 73 73 74 75 76 78 79 80 80
Wind_Direction_850mb
244 237 228 312 223 209 215 232 248 248 253 253 248 257 269 269 256 214 200 197 199 200 204 199 205 222 234 245 249 250 251 251 251 252 253 254 256 258 260 260 260 262 265 267
260 262 256 247 237 248 222 226 234 245 260 253 250 241 245 251 245 235 218 218 222 228 224 215 226 253 264 267 265 264 264 264 261 259 259 260 261 260 261 261 261 260 259 259
264 240 313 246 236 236 250 246 229 242 245 270 249 227 231 243 234 236 234 229 231 237 232 237 256 269 272 272 270 268 267 267 265 262 262 262 263 264 264 263 263 261 259 259
252 47 252 247 319 227 229 238 227 244 255 254 246 248 251 249 255 244 245 239 232 227 225 247 264 270 273 275 272 268 265 263 262 260 259 257 256 258 259 260 259 257 258 259
212 203 285 296 278 204 212 252 232 234 244 249 246 254 246 240 243 252 249 241 225 219 235 250 257 261 266 269 268 268 265 259 255 252 252 252 253 256 262 265 267 271 272 272
132 194 224 257 151 237 196 256 244 225 242 242 197 230 248 232 235 243 243 222 211 219 229 233 237 246 253 258 262 262 259 255 250 245 242 243 247 252 258 258 269 283 289 298
235 253 264 264 194 164 182 242 228 223 230 228 206 222 238 234 231 232 220 206 211 215 211 209 217 226 233 239 244 245 240 236 236 241 251 263 272 281 285 289 288 293 296 293
224 236 253 199 188 192 233 287 303 308 240 217 222 232 233 234 227 210 197 197 201 203 201 202 201 202 200 193 189 174 157 164 158 20 323 315 316 314 315 311 303 305 310 317
197 216 10 91 36 323 341 306 311 302 305 248 234 234 233 224 206 193 192 191 193 196 192 187 182 176 171 157 147 134 124 105 64 26 0 345 333 318 305 301 301 306 311 316
5 342 348 21 12 321 335 331 325 300 288 269 246 236 215 196 188 185 183 184 183 185 179 175 170 167 163 155 147 143 143 131 110 78 26 5 356 344 335 328 318 307 300 292
273 6 331 246 10 345 333 323 323 333 294 275 251 209 196 179 176 176 175 174 173 172 165 160 158 158 155 152 148 136 136 121 101 59 36 25 25 20 13 6 359 339 332 319
310 354 318 293 308 337 334 330 350 356 341 193 203 179 175 168 171 170 167 163 163 161 160 156 154 153 151 147 138 133 126 98 75 67 73 89 85 73 54 39 18 359 358 345
287 307 304 295 314 308 324 327 0 12 171 159 157 160 163 158 156 157 158 157 160 156 152 149 149 146 142 138 123 111 96 88 89 92 93 81 73 68 65 66 47 26 11 360
299 329 344 322 323 320 329 350 15 99 143 147 142 151 154 152 148 152 152 154 153 151 147 143 139 140 131 123 114 104 105 115 123 120 107 94 82 72 65 61 55 43 32 23
319 336 316 309 316 331 338 1 78 108 114 127 137 143 147 145 145 147 147 146 147 146 142 140 141 135 125 122 116 125 126 132 122 104 89 74 65 56 47 41 36 34 27 23
326 320 325 350 355 357 2 33 61 76 109 122 131 137 139 144 144 143 140 138 146 141 135 137 137 127 125 124 128 136 137 119 92 73 56 48 45 42 37 34 33 28 20 7
347 344 341 348 358 2 12 27 56 79 107 123 127 131 137 138 136 134 132 134 137 134 131 130 124 122 123 129 137 140 119 101 81 65 49 38 25 14 4 351 337 330 326 321
339 333 332 333 344 1 24 45 64 82 97 108 120 122 125 128 125 123 123 120 120 122 123 122 121 119 125 131 130 119 101 81 50 15 357 345 337 330 326 322 319 317 314 310
3 8 11 15 24 31 49 67 77 83 94 99 108 110 111 112 112 113 109 109 109 110 107 108 108 107 119 130 107 58 8 342 329 321 318 315 312 311 309 308 307 306 305 303
33 41 37 43 48 59 69 75 85 96 100 107 108 108 110 106 102 99 98 98 84 78 77 82 76 53 19 350 323 320 317 313 309 307 306 304 303 303 302 302 302 302 301 300
38 48 53 59 60 66 73 77 82 86 87 94 101 103 106 109 111 108 103 95 83 76 51 23 355 341 333 325 317 312 308 306 306 305 304 303 302 301 301 300 299 298 297 297
45 52 56 60 63 67 70 73 76 79 83 84 83 83 80 78 75 65 49 30 8 354 344 335 329 320 314 308 309 309 309 308 307 306 306 304 304 303 302 301 300 299 298 297
43 50 57 61 60 61 64 67 67 67 66 66 65 61 55 48 34 10 349 341 335 330 325 316 310 306 308 310 309 309 307 305 304 302 301 300 299 297 296 295 294 292 291 292
43 47 50 49 51 55 61 56 51 47 42 38 34 28 21 10 359 347 336 329 323 319 315 312 311 309 309 307 306 304 303 301 300 299 298 296 296 295 294 294 293 293 291 290
40 41 41 39 42 43 42 40 37 32 25 20 14 7 360 351 344 338 332 327 324 321 320 318 317 315 314 313 311 310 307 306 305 303 302 299 297 295 293 292 291 290 288 288
35 36 35 33 31 32 29 26 23 20 19 15 2 358 349 342 336 332 328 325 323 320 318 316 313 312 310 308 306 305 303 302 301 299 298 297 296 295 294 294 292 291 290 289
27 29 27 22 21 20 17 15 10 1 354 349 349 341 335 329 326 323 321 319 317 315 314 312 311 309 307 306 304 302 300 299 298 297 296 294 293 292 292 291 289 288 287 286